User: anonymous   Login
Location: Unspecified
(0.0000°N, 0.0000°E)
Time: 09:13:31
(UTC+00:00)
Language:

M3MSAT - Orbit

View from above orbital plane
View from above orbital plane
View from above satellite
View from above satellite

Ground track
Ground track

The orbit data is extracted from the following two-line orbital elements,

1 41605U 16040G   17086.73299078 +.00001198 +00000-0 +58840-4 0  9992
2 41605 097.4716 149.8699 0012682 009.3399 350.8069 15.19950223042307
Epoch (UTC): 27 March 2017 17:35:30
Eccentricity: 0.0012682
inclination: 97.4716°
perigee height: 497 km
apogee height: 515 km
right ascension of ascending node: 149.8699°
argument of perigee: 9.3399°
revolutions per day: 15.19950223
mean anomaly at epoch: 350.8069°
orbit number at epoch: 4230

The dashed part of the orbit path shows where the satellite is in the earth's shadow,  

DLR